Weather Roundup
Issued by NWS

Home | Current Version | Previous Version | Graphics & Text | Print | Product List | Glossary Off
Versions: 1 2 3 4 5 6 7 8 9 10 11 12 13 14 15 16 17 18 19 20 21 22 23 24 25 26 27 28 29 30 31 32 33 34 35 36 37 38 39 40 41 42 43 44 45 46 47 48 49 50

670
NZUS93 KARX 222210
HRRWXR

CURRENT HOURLY OBSERVATIONS ACROSS
MUCH OF THE UPPER MISSISSIPPI VALLEY
NATIONAL WEATHER SERVICE LA CROSSE WI
400 PM CST WED FEB 22 2017


...SOUTHEAST MINNESOTA...


CITY           SKY/WX    TMP DP  RH WIND       PRES   REMARKS
ROCHESTER      SUNNY     55  48  77 SW10      29.57R
ROCHESTER/MAYO FAIR      60  43  54 W8        29.56S
WINONA         MOSUNNY   57  39  51 W3        29.56R
AUSTIN         SUNNY     57  46  67 W10       29.57R
ALBERT LEA     SUNNY     61  45  55 W3        29.56F
DODGE CENTER   SUNNY     57  46  67 W9        29.57R
PRESTON        SUNNY     56  43  61 NW10      29.56S
OWATONNA       SUNNY     59  43  55 CALM      29.55F
FARIBAULT      SUNNY     61  46  59 S6        29.55S
$$

...ELSEWHERE IN MINNESOTA...


CITY           SKY/WX    TMP DP  RH WIND       PRES   REMARKS
MINNEAPOLIS    MOSUNNY   57  42  57 CALM      29.53F
INTNL FALLS    CLOUDY    33  28  81 N9        29.71R WCI  25
DULUTH         CLOUDY    41  34  76 E8        29.56F
RED WING       SUNNY     59  37  44 S5        29.54S
REDWOOD FALLS  SUNNY     54  43  66 NW14G22   29.59R
MANKATO          N/A     62  45  53 W16       29.56R
WORTHINGTON    SUNNY     57  44  62 W22       29.62R
FAIRMONT       SUNNY     63  43  48 W17       29.58R
$$

...SOUTHWEST WISCONSIN...


CITY           SKY/WX    TMP DP  RH WIND       PRES   REMARKS
LA CROSSE      SUNNY     62  40  44 S10       29.53S
PRAIRIE DU CHI SUNNY     69  40  34 SW10      29.52R
BOSCOBEL       SUNNY     72  44  36 SW13G20   29.51F
LONE ROCK      SUNNY     71  46  40 SW9       29.51F
PLATTEVILLE    SUNNY     70  49  48 S15       29.53F
FORT MC COY    CLOUDY    62  41  45 W8        29.55R
CAMP DOUGLAS   PTSUNNY   61  39  44 CALM      29.51F
MAUSTON-NEW LI CLOUDY    62  42  47 SW3       29.51F
VIROQUA        FAIR      62  40  44 W17G24    29.55R
WIS DELLS      PTSUNNY   64  43  46 SW9       29.51F
$$

...ELSEWHERE IN WISCONSIN...


CITY           SKY/WX    TMP DP  RH WIND       PRES   REMARKS
MILWAUKEE      MOSUNNY   70  47  43 S23       29.57F
MADISON        MOSUNNY   68  48  48 S12       29.51F
GREEN BAY      CLOUDY    64  51  62 SW5       29.52F
EAU CLAIRE     PTSUNNY   57  41  55 CALM      29.52F
BLACK RVR FLS  FAIR      60  34  38 CALM      29.51F
MEDFORD        CLOUDY    50  40  67 E5        29.50F
WAUSAU         CLOUDY    54  38  54 NE5       29.53F
WIS RAPIDS     MOSUNNY   59  37  44 N8        29.52F
MARSHFIELD     CLOUDY    53  40  61 NE12      29.49F
RICE LAKE      PTSUNNY   53  43  71 CALM      29.54S
$$

...NORTHEAST IOWA...


CITY           SKY/WX    TMP DP  RH WIND       PRES   REMARKS
WATERLOO       SUNNY     65  43  44 W13       29.55S
DUBUQUE        SUNNY     69  48  47 S22       29.53F
DECORAH        SUNNY     63  43  48 S9        29.53F
MASON CITY     SUNNY     60  45  57 NW14      29.60R
CHARLES CITY   SUNNY     59  48  67 W12G20    29.57S
OELWEIN        SUNNY     64  46  52 W18       29.55R
$$

...ELSEWHERE IN IOWA...


CITY           SKY/WX    TMP DP  RH WIND       PRES   REMARKS
DES MOINES     MOSUNNY   72  38  29 W14       29.59S
IOWA CITY      SUNNY     77  41  27 SW15G24   29.55F
FORT DODGE     SUNNY     66  46  48 NW13G21   29.61R
MARSHALLTOWN   SUNNY     66  42  41 W15       29.57R
CEDAR RAPIDS   SUNNY     73  43  33 W20G26    29.53S
$$

...NORTHERN ILLINOIS...


CITY           SKY/WX    TMP DP  RH WIND       PRES   REMARKS
CHICAGO-OHARE  SUNNY     67  52  58 S16       29.63F
CHICAGO-MIDWAY MOSUNNY   67  54  63 S15G23    29.65F
MOLINE         SUNNY     72  52  49 S21G30    29.55F
ROCKFORD       MOSUNNY   69  50  50 S17       29.60F
PEORIA         SUNNY     65  56  72 S16       29.66F
$$

NOTE: "FAIR" INDICATES FEW OR NO CLOUDS BELOW 12,000 FEET WITH NO
SIGNIFICANT WEATHER AND/OR OBSTRUCTIONS TO VISIBILITY. WIND
SPEEDS ARE IN MILES-PER-HOUR.




USA.gov is the U.S. government's official web portal to all federal, state and local government web resources and services.